Tracking 20719 objects as of 26-May-2020
HD Live streaming from Space Station
objects crossing your sky now

MARECS B2

Track MARECS B2 now!
MARECS B2 is classified as:


NORAD ID: 15386
Int'l Code: 1984-114B
Perigee: 36,540.0 km
Apogee: 37,574.1 km
Inclination: 16.0 °
Period: 1,501.1 minutes
Semi major axis: 43428 km
RCS: 3.0552 m2 (large)
Launch date: November 10, 1984
Source: European Space Agency (ESA)
Launch site: FRENCH GUIANA (FRGUI)
aabbcc
Your satellite tracking list
Your tracking list is empty




NASA's NSSDC Master Catalog

Two Line Element Set (TLE):
1 15386U 84114B   20143.72040390 -.00000149  00000-0  00000+0 0  9990
2 15386  15.9854 349.5686 0119064   1.4333 186.5923  0.95928535 91395
Source of the keplerian elements: AFSPC